Location: Castelbiague
(43.0361°N, 0.9246°E)
Time: 22:21:47
(UTC+00:00)

Daily predictions for brighter satellites

Satellite Brightness Start Highest point End
(mag) Time Altitude Azimuth Time Altitude Azimuth Time Altitude Azimuth
Cosmos 2082 Rocket 2.9 16:45:07 10° SSE 16:50:11 34° ESE 16:55:15 10° NE
Cosmos 468 Rocket 4.0 16:50:15 10° SSW 16:55:24 89° W 17:00:39 10° NNE
Meteor 1-25 Rocket 4.2 16:51:01 10° N 16:56:33 61° ENE 17:02:05 10° SSE
Cosmos 1500 Rocket 3.5 16:53:24 10° N 16:57:51 78° E 17:02:14 10° SSE
Cosmos 2221 3.8 16:58:51 10° SSW 17:02:54 41° WNW 17:07:00 10° N
Cosmos 1898 Rocket 3.5 16:57:55 10° NNW 17:03:11 78° ENE 17:08:23 10° SSE
USA 276 3.4 17:00:29 10° WNW 17:03:27 42° SW 17:06:25 10° SE
Cosmos 2278 4.5 16:58:37 10° N 17:03:36 30° NE 17:08:33 10° ESE
Cosmos 1939 Rocket 2.9 16:59:42 10° SSE 17:03:45 59° ENE 17:07:46 10° N
CZ-2C R/B 3.8 17:02:36 10° S 17:03:48 11° SSE 17:05:01 10° SE
Cosmos 1602 3.9 17:01:08 10° N 17:04:55 51° E 17:08:42 10° SSE
Sich 1 3.4 17:00:59 10° N 17:05:04 41° ENE 17:09:09 10° SSE
ARGOS 4.3 17:01:44 10° ESE 17:05:45 22° ENE 17:09:45 10° NNE
Nadezhda 4 Rocket 4.3 17:00:43 10° N 17:07:03 75° W 17:13:21 10° S
Cosmos 2084 4.0 17:02:55 10° NW 17:07:13 66° WSW 17:11:41 10° SSE
Cosmos 1805 Rocket 3.5 17:05:29 10° N 17:09:46 60° E 17:14:03 10° SSE
Cosmos 1833 Rocket 2.9 17:04:18 10° SSW 17:09:54 77° WNW 17:15:34 10° NNE
COSMOS 2406 3.3 17:08:03 10° SSW 17:13:49 89° ESE 17:19:35 10° NNE
NOSS 2-2 (C) 4.5 17:11:50 10° NNW 17:17:01 56° NE 17:24:15 10° SE
CZ-2C R/B 3.7 17:15:24 10° S 17:20:13 56° W 17:24:55 10° NNW
Cosmos 1782 2.7 17:17:44 10° S 17:21:42 67° E 17:25:40 10° NNE
USA 267 3.5 17:16:46 10° NE 17:23:14 67° NW 17:29:42 10° WSW
Cosmos 1092 Rocket 4.0 17:17:44 10° N 17:24:09 88° E 17:30:28 10° S
Cosmos 1428 Rocket 4.4 17:18:42 10° N 17:24:51 78° E 17:31:02 10° SSE
Cosmos 1763 Rocket 4.5 17:22:05 10° SW 17:26:56 45° WNW 17:31:50 10° N
CZ-2C R/B 3.2 17:23:25 10° NNE 17:28:09 35° E 17:32:50 10° SSE
CZ-2D R/B 3.4 17:24:30 10° SSE 17:28:12 50° ENE 17:31:55 10° N
Cosmos 1500 3.0 17:25:55 10° N 17:29:38 65° E 17:33:19 10° SSE
CZ-4C R/B 3.1 17:24:06 10° NNW 17:31:10 54° NE 17:39:22 10° ESE
H-2A R/B 2.1 17:26:25 10° SSE 17:31:26 54° ENE 17:36:20 10° N
CZ-4B R/B 3.5 17:27:50 10° SE 17:32:56 43° ENE 17:37:57 10° N
Cosmos 841 Rocket 3.5 17:29:03 10° SSW 17:34:13 87° WNW 17:39:24 10° NNE
PAYLOAD B 4.2 17:29:09 10° SSE 17:34:41 65° ENE 17:40:14 10° N
SMAP 3.6 17:36:26 10° S 17:41:01 61° WSW 17:45:39 10° NNW
Cosmos 1937 Rocket 3.9 17:36:12 10° NNW 17:41:30 68° WSW 17:46:44 10° S
Cosmos 2142 Rocket 4.4 17:37:18 10° S 17:43:22 67° E 17:49:32 10° NNE
Lacrosse 5 rocket 2.4 17:40:46 10° NNW 17:44:04 25° NNE 17:44:49 24° NE
Cosmos 921 Rocket 3.8 17:40:47 10° SSE 17:44:23 28° E 17:45:21 26° ENE
COSMO-SKYMED 1 2.8 17:41:39 12° NNE 17:45:27 46° E 17:49:37 10° S
Cosmos 1125 Rocket 4.4 17:41:41 10° N 17:46:03 26° ENE 17:47:31 23° E
COSMOS 2455 3.1 17:40:37 10° SW 17:46:36 72° WNW 17:52:29 11° NNE
Cosmos 2279 Rocket 3.9 17:42:37 10° S 17:48:46 70° E 17:54:58 10° NNE
Cosmos 372 Rocket 4.0 17:44:10 10° NNW 17:49:26 89° WSW 17:54:41 10° SSE
ISS -3.8 17:48:25 10° NW 17:51:49 70° NNE 17:53:03 36° ESE
Cosmos 1633 Rocket 3.0 17:47:51 10° N 17:52:12 60° E 17:56:31 10° SSE
Cosmos 2360 Rocket 3.9 17:50:00 10° N 17:52:12 15° NNE 17:52:12 15° NNE
Cosmos 44 Rocket 3.8 17:49:45 10° NNW 17:54:20 38° NE 17:56:04 28° E
Cosmos 2266 Rocket 4.4 17:49:02 10° N 17:55:01 40° ENE 18:00:59 10° SE
USA 234 3.2 17:49:14 10° SE 17:55:48 89° SSW 18:02:23 10° NW
SL-24 R/B - RUBIN 2 3.7 17:53:36 10° NW 17:58:04 74° WSW 18:02:21 10° SSE
Meteor 1-11 Rocket 4.3 17:53:36 10° N 17:58:43 34° ENE 18:03:53 10° SE
Cosmos 1666 2.4 17:55:12 10° N 17:58:55 80° E 18:02:37 10° S
Cosmos 1151 Rocket 3.0 17:55:26 10° S 17:59:45 87° W 18:04:08 10° N
PSLV R/B 4.4 17:56:44 10° S 18:00:20 54° W 18:04:00 10° NNW
CZ-4 R/B 4.4 18:01:48 10° SSE 18:05:51 60° ENE 18:09:56 10° N
USA 305 4.3 18:05:14 10° NW 18:08:39 23° NNE 18:08:39 23° NNE
Cosmos 1900 4.2 18:04:39 10° SSW 18:09:31 83° ESE 18:11:47 32° NE
SKYMED 3 4.4 18:06:03 15° NNE 18:09:37 86° E 18:13:57 10° SSW
X-37B 2.6 18:08:46 10° SSW 18:10:00 17° S 18:10:00 17° S
Okean O Rocket 1.5 18:07:15 10° SSE 18:11:41 74° ENE 18:16:09 10° N
Feng Yun 1-1 Rocket 4.5 18:07:13 10° SE 18:12:56 52° ENE 18:18:35 10° N
Meteor 2-15 4.3 18:07:26 10° S 18:13:29 67° E 18:19:32 10° NNE
Cosmos 2322 Rocket 3.0 18:09:23 10° N 18:13:53 31° NE 18:13:53 31° NE
Landsat 5 3.2 18:16:56 47° NNE 18:18:00 74° ESE 18:21:57 10° S
Cosmos 1666 Rocket 4.2 18:14:34 10° NNW 18:18:55 56° W 18:23:13 10° S
Cosmos 1980 Rocket 2.9 18:14:18 10° NNW 18:19:48 54° WSW 18:25:14 10° S
Cosmos 1812 4.0 18:16:26 10° SSW 18:20:04 40° WNW 18:23:43 10° N
Cosmos 1328 Rocket 3.7 18:16:03 10° SSW 18:20:28 74° W 18:24:02 16° N
SJ-11-01 4.3 18:16:50 10° SSE 18:21:35 86° WSW 18:26:22 10° NNW
Cosmos 1470 Rocket 3.4 18:17:51 10° N 18:22:19 74° E 18:26:47 10° SSE
APEX 3.8 18:19:05 10° S 18:22:09 42° SSE 18:22:09 42° SSE
SL-16 R/B 2.2 18:27:28 10° NNW 18:33:03 55° ENE 18:33:21 55° ENE
SKYMED 2 4.3 18:30:16 16° N 18:33:31 52° WNW 18:37:44 10° SSW
Cosmos 2082 Rocket 3.5 18:28:58 10° SW 18:34:11 37° WNW 18:38:46 13° N
ATLAS CENTAUR R/B 3.9 18:29:33 10° W 18:36:02 27° NW 18:37:45 21° N
Cosmos 2298 Rocket 3.9 18:31:12 10° NNW 18:36:33 78° ENE 18:38:49 35° SSE
Cosmos 1655 Rocket 3.9 18:30:11 10° N 18:36:37 86° E 18:42:59 10° S
DMSP B5D2-2 4.0 18:42:37 65° SE 18:42:37 65° SE 18:47:30 10° S
CZ-2C R/B 3.1 18:39:18 10° SW 18:42:01 22° S 18:42:01 22° S
ARGOS 3.8 18:40:17 10° S 18:45:35 56° W 18:50:55 10° NNW
Cosmos 2333 Rocket 4.3 18:42:01 10° N 18:42:44 12° N 18:42:44 12° N
Cosmos 1818 3.6 18:42:46 10° NW 18:48:16 80° WSW 18:49:43 50° SSE
NOAA 15 4.4 18:43:20 10° SSE 18:48:37 86° ENE 18:53:55 10° NNW
GEOS 3 Rocket 4.1 18:54:52 49° N 18:54:52 49° N 18:58:50 10° NNW
Meteor 1-27 Rocket 3.6 18:56:24 10° S 19:01:42 82° SW 19:01:42 82° SW
USA 267 4.4 19:03:55 28° N 19:05:34 31° NNW 19:11:08 10° WNW
CZ-2C R/B 4.2 19:03:52 10° N 19:08:20 30° WNW 19:12:47 10° SW
Cosmos 1867 4.3 19:04:55 10° SSW 19:08:41 46° SSW 19:08:41 46° SSW
CZ-4C R/B 4.0 19:12:46 10° NW 19:19:52 44° WSW 19:27:49 10° S
Lacrosse 5 rocket 3.9 19:19:26 10° NW 19:20:27 17° WNW 19:20:27 17° WNW
Cosmos 2360 Rocket 4.2 19:32:31 10° NNW 19:33:59 19° NNW 19:33:59 19° NNW
Cosmos 2322 Rocket 4.1 19:53:15 10° NW 19:55:46 25° NW 19:55:46 25° NW
SL-16 R/B 4.5 20:12:27 10° NW 20:15:18 20° W 20:15:18 20° W
